DateTimeUTC,F1_A11,F1_S11,BsB_S11,BsG_S11,BsR_S11,BbsB_S11,BbsG_S11,BbsR_S11,BaB_A11,BaG_A11,BaR_A11,Tu_S11,T_S11,Uu_S11,U_S11,P_S11,T1_A11
2021-03-09T08:00:00Z,00000200,21000000,,,,,,,0000.03,-000.07,-000.14,17.1,24.7,,00.0,0645.0,30.9
2021-03-09T08:01:00Z,00000200,21000000,,,,,,,-000.16,-000.14,0000.04,17.1,24.7,,00.0,0645.0,31.0
2021-03-09T08:02:00Z,00000200,21000000,,,,,,,0000.02,-000.14,-000.11,17.1,24.7,,00.0,0645.0,30.9
2021-03-09T08:03:00Z,00000200,61000000,,,,,,,-000.18,-000.04,-000.06,17.1,24.7,,00.0,0645.0,30.9
2021-03-09T08:04:00Z,00000200,41000000,-000.44,-000.17,-000.10,0000.07,0000.05,-000.04,0000.02,-000.07,-000.08,17.3,24.5,,00.0,0645.8,30.9
2021-03-09T08:05:00Z,00000200,01000000,-000.14,0000.02,0000.00,0000.63,0000.05,0000.03,-000.06,-000.12,0000.05,17.3,24.5,,00.0,0645.9,30.9
2021-03-09T08:06:00Z,00000200,01000000,0000.02,-000.16,0000.33,0000.43,0000.10,0000.03,-000.19,0000.27,0000.01,17.3,24.4,,00.0,0645.9,30.9
2021-03-09T08:07:00Z,00000200,01000000,-000.26,0000.02,-000.02,0000.30,0000.18,0000.09,0000.08,-000.30,-000.12,17.3,24.4,,00.0,0645.9,31.0
2021-03-09T08:08:00Z,00000200,01000000,0000.22,-000.24,0000.31,0000.54,0000.10,-000.04,0000.02,-000.13,0000.15,17.3,24.4,,00.0,0645.9,30.9
2021-03-09T08:09:00Z,00000200,01000000,0000.06,0000.03,0000.35,0000.25,0000.08,-000.05,0000.04,-000.14,-000.12,17.3,24.4,,00.0,0645.9,30.9
2021-03-09T08:10:00Z,00000200,01000000,0000.00,-000.04,0000.10,0000.45,0000.30,-000.12,-000.04,0000.34,0000.30,17.3,24.4,,00.0,0645.9,30.9
2021-03-09T08:11:00Z,00000200,01000000,0000.05,0000.08,0000.15,0000.36,0000.03,-000.07,0000.30,0000.10,0000.05,17.3,24.4,,00.0,0645.9,30.9
2021-03-09T08:12:00Z,00000200,01000000,-000.40,-000.01,0000.06,0000.30,0000.12,-000.12,-000.23,-000.02,-000.19,17.3,24.4,,00.0,0645.9,30.9
2021-03-09T08:13:00Z,00000200,01000000,0000.15,0000.06,-000.02,0000.80,0000.06,0000.15,0000.17,-000.06,0000.35,17.3,24.4,,00.0,0645.9,30.9
2021-03-09T08:14:00Z,00000200,01000000,-000.35,0000.03,-000.01,0000.09,-000.09,0000.02,0000.24,0000.24,0000.06,17.3,24.4,,00.0,0645.9,30.9
2021-03-09T08:15:00Z,00000200,01000000,0000.62,0000.40,0000.43,0000.23,-000.06,-000.07,0003.13,0003.15,0002.46,17.4,24.4,,00.0,0645.9,31.0
2021-03-09T08:16:00Z,00000200,01000000,0016.01,0011.91,0007.27,0003.78,0002.99,0002.12,0218.23,0200.81,0158.18,17.4,24.4,,00.0,0645.9,31.0
2021-03-09T08:17:00Z,00000200,01000000,0005.08,0003.59,0002.48,0001.37,0001.17,0000.44,0085.54,0079.09,0063.54,17.5,24.4,,00.0,0645.9,31.0
2021-03-09T08:18:00Z,00000200,01000000,0000.11,0000.61,0000.29,0000.78,0000.20,0000.39,0013.76,0013.62,0010.65,17.5,24.4,,00.0,0645.9,31.0
2021-03-09T08:19:00Z,00000200,01000000,0000.36,0000.11,0000.20,0000.42,-000.03,0000.19,0001.18,0000.86,0000.70,17.5,24.4,,00.0,0645.9,31.0
2021-03-09T08:20:00Z,00000200,01000000,-000.42,0000.19,0000.33,0000.66,-000.04,-000.06,0001.18,0000.72,0000.59,17.5,24.5,,00.0,0645.8,31.0
2021-03-09T08:21:00Z,00000200,01000000,0000.01,0000.15,0000.06,0000.38,0000.13,-000.02,0000.21,0000.42,0000.22,17.5,24.5,,00.0,0645.8,31.0
2021-03-09T08:22:00Z,00000200,01000000,-000.11,0000.25,0000.16,0000.58,-000.14,-000.23,0000.36,0000.29,0000.61,17.5,24.5,,00.0,0645.9,31.0
2021-03-09T08:23:00Z,00000200,01000000,-000.07,0000.05,0000.09,0000.52,-000.08,-000.26,-000.06,0000.03,0000.08,17.5,24.4,,00.0,0645.9,31.0
2021-03-09T08:24:00Z,00000200,01000000,0000.47,0000.07,-000.03,0000.52,0000.07,-000.22,0000.08,0000.22,-000.27,17.5,24.5,,00.0,0645.9,30.9
2021-03-09T08:25:00Z,00000200,01000000,0000.18,0000.16,0000.09,0000.50,0000.15,-000.03,0000.14,-000.00,0000.38,17.5,24.5,,00.0,0645.9,31.0
2021-03-09T08:26:00Z,00000200,01000000,-000.06,0000.20,0000.13,0000.00,0000.02,-000.23,0000.08,0000.15,-000.48,17.4,24.5,,00.0,0645.8,31.0
2021-03-09T08:27:00Z,00000200,01000000,0000.19,-000.05,-000.04,0000.56,0000.01,-000.20,-000.07,0000.24,0000.14,17.4,24.5,,00.0,0645.9,31.0
2021-03-09T08:28:00Z,00000200,01000000,0000.31,-000.00,0000.33,0000.45,0000.01,-000.05,0000.31,0000.07,0000.34,17.4,24.4,,00.0,0645.9,31.0
2021-03-09T08:29:00Z,00000200,01000000,-000.14,0000.19,0000.00,0000.18,0000.15,0000.03,0000.05,-000.38,-000.19,17.4,24.4,,00.0,0645.9,30.9
2021-03-09T08:30:00Z,00000200,01000000,-000.07,-000.02,0000.10,0000.33,0000.08,-000.05,0000.09,0000.21,0000.26,17.4,24.5,,00.0,0645.9,30.9
2021-03-09T08:31:00Z,00000200,01000000,0000.41,0000.12,0000.25,0000.45,0000.00,0000.11,0000.24,0000.03,-000.07,17.4,24.5,,00.0,0645.9,30.9
2021-03-09T08:32:00Z,00000200,01000000,-000.16,0000.01,0000.09,0000.76,0000.07,-000.05,-000.24,0000.07,0000.48,17.4,24.4,,00.0,0645.9,30.9
2021-03-09T08:33:00Z,00000200,01000000,0000.20,-000.16,0000.11,0000.91,0000.24,0000.04,-000.01,0000.07,-000.28,17.4,24.4,,00.0,0645.8,30.9
2021-03-09T08:34:00Z,00000200,01000000,0000.25,-000.00,-000.05,0000.08,-000.02,-000.27,0000.50,0000.31,0000.35,17.4,24.4,,00.0,0645.8,30.9
2021-03-09T08:35:00Z,00000200,01000000,-000.59,-000.16,0000.18,0000.24,0000.02,0000.21,0000.38,0000.32,0000.07,17.4,24.4,,00.0,0645.8,31.0
2021-03-09T08:36:00Z,00000200,01000000,0000.50,0000.45,0000.12,0000.74,0000.23,-000.04,-000.29,0000.24,-000.22,17.4,24.4,,00.0,0645.8,31.0
2021-03-09T08:37:00Z,00000200,01000000,-000.16,0000.22,-000.15,0000.27,-000.13,-000.34,-000.00,-000.18,0000.49,17.4,24.4,,00.0,0645.8,30.9
2021-03-09T08:38:00Z,00000200,01000000,0000.35,-000.14,-000.10,0000.42,0000.06,0000.07,0000.62,0000.11,0000.00,17.4,24.4,,00.0,0645.8,30.9
2021-03-09T08:39:00Z,00000200,01000000,-000.21,0000.33,0000.26,0000.25,0000.05,0000.04,0000.21,0000.28,0000.07,17.3,24.4,,00.0,0645.8,30.9
2021-03-09T08:40:00Z,00000200,01000000,-000.15,0000.00,0000.15,0000.44,0000.11,-000.15,0000.08,0000.43,0000.47,17.3,24.4,,00.0,0645.8,30.9
2021-03-09T08:41:00Z,00000200,01000000,-000.19,0000.33,0000.15,0000.25,0000.14,-000.02,0000.12,-000.01,0000.04,17.3,24.4,,00.0,0645.8,30.9
2021-03-09T08:42:00Z,00000200,01000000,0000.53,0000.14,0000.17,0000.25,-000.15,0000.11,-000.04,-000.12,0000.01,17.3,24.4,,00.0,0645.8,30.9
2021-03-09T08:43:00Z,00000200,01000000,0000.09,-000.05,0000.04,0000.78,0000.16,-000.24,-000.04,-000.64,-000.24,17.3,24.4,,00.0,0645.8,30.9
2021-03-09T08:44:00Z,00000200,01000000,0000.20,-000.11,0000.08,0000.73,0000.01,-000.01,-000.02,0000.55,0000.06,17.3,24.4,,00.0,0645.8,30.9
2021-03-09T08:45:00Z,00000200,01000000,0000.53,0000.01,0000.14,0000.79,-000.06,-000.17,-000.09,-000.04,-000.25,17.4,24.4,,00.0,0645.8,30.9
2021-03-09T08:46:00Z,00000200,01000000,-000.18,0000.02,-000.05,0000.58,0000.03,0000.18,0000.42,0000.48,0000.74,17.4,24.4,,00.0,0645.8,31.0
2021-03-09T08:47:00Z,00000200,01000000,0000.19,-000.23,0000.11,0000.45,0000.07,0000.07,0000.18,0000.01,-000.51,17.5,24.5,,00.0,0645.8,31.0
2021-03-09T08:48:00Z,00000200,01000000,-000.20,-000.09,0000.19,0000.62,-000.17,-000.11,0000.15,0000.27,0000.07,17.5,24.5,,00.0,0645.8,31.0
2021-03-09T08:49:00Z,00000200,01000000,-000.11,0000.08,-000.03,0000.61,0000.07,-000.10,0000.21,0000.18,0000.50,17.5,24.5,,00.0,0645.8,31.0
2021-03-09T08:50:00Z,00000200,01000000,-000.45,-000.05,-000.02,0000.50,0000.07,0000.04,0000.01,-000.13,-000.15,17.5,24.5,,00.0,0645.8,31.0
2021-03-09T08:51:00Z,00000200,01000000,-000.06,-000.18,0000.01,-000.04,0000.21,-000.05,0000.51,0000.45,0000.30,17.5,24.5,,00.0,0645.8,31.0
2021-03-09T08:52:00Z,00000200,01000000,0000.72,-000.27,0000.17,0000.16,0000.02,-000.17,-000.39,0000.01,-000.16,17.5,24.5,,00.0,0645.8,31.0
2021-03-09T08:53:00Z,00000200,01000000,-000.29,0000.10,0000.07,0000.36,0000.02,0000.10,0000.50,0000.02,0000.67,17.5,24.5,,00.0,0645.8,31.0
2021-03-09T08:54:00Z,00000200,01000000,0005.83,0004.83,0002.97,0001.80,0001.07,0001.02,0075.39,0068.78,0053.80,17.5,24.5,,00.0,0645.8,30.9
2021-03-09T08:55:00Z,00000200,01000000,0016.45,0012.74,0007.79,0003.91,0003.09,0002.03,0249.50,0230.74,0183.05,17.4,24.5,,00.0,0645.8,30.9
2021-03-09T08:56:00Z,00000200,01000000,0011.25,0008.51,0005.43,0002.98,0001.87,0001.21,0169.44,0157.10,0124.85,17.4,24.5,,00.0,0645.9,31.0
2021-03-09T08:57:00Z,00000200,41000000,,,,,,,0045.15,0042.30,0034.09,17.4,24.5,,00.0,0645.9,31.0
2021-03-09T08:58:00Z,00000200,61000000,,,,,,,0001.49,0000.85,0000.87,17.1,24.6,,00.0,0644.9,30.9
2021-03-09T08:59:00Z,00000200,21000000,,,,,,,0001.49,0001.37,0000.61,17.1,24.7,,00.0,0644.9,30.9
